Time,TemperatureF,DewpointF,PressureIn,WindDirection,WindDirectionDegrees,WindSpeedMPH,WindSpeedGustMPH,Humidity,HourlyPrecipIn,Conditions,Clouds,dailyrainin,SoftwareType,DateUTC
2013-02-24 00:01:00,23.0,21.0,29.74,NE,44,3.0,-999.0,89,-99.99,,,-99.99,,2013-02-24 07:01:00,
2013-02-24 00:12:00,24.0,22.0,29.77,NE,50,3.0,-999.0,90,-99.99,,,-99.99,,2013-02-24 07:12:00,
2013-02-24 00:21:00,24.0,21.0,29.76,NNE,25,4.0,-999.0,89,-99.99,,,-99.99,,2013-02-24 07:21:00,
2013-02-24 00:32:00,23.0,21.0,29.74,NNE,25,3.0,-999.0,90,-99.99,,,-99.99,,2013-02-24 07:32:00,
2013-02-24 00:42:00,23.0,21.0,29.77,NNW,330,3.0,-999.0,90,-99.99,,,-99.99,,2013-02-24 07:42:00,
2013-02-24 00:51:00,22.0,20.0,29.78,WNW,303,5.0,-999.0,90,-99.99,,,-99.99,,2013-02-24 07:51:00,
2013-02-24 01:01:00,22.0,20.0,29.76,NNW,332,2.0,-999.0,91,-99.99,,,-99.99,,2013-02-24 08:01:00,
2013-02-24 01:11:00,22.0,20.0,29.78,NW,312,6.0,-999.0,92,-99.99,,,-99.99,,2013-02-24 08:11:00,
2013-02-24 01:22:00,22.0,20.0,29.78,NW,311,6.0,-999.0,92,-99.99,,,-99.99,,2013-02-24 08:22:00,
2013-02-24 01:31:00,23.0,21.0,29.78,NNW,336,6.0,-999.0,93,-99.99,,,-99.99,,2013-02-24 08:31:00,
2013-02-24 01:42:00,23.0,21.0,29.76,NNW,344,6.0,-999.0,93,-99.99,,,-99.99,,2013-02-24 08:42:00,
2013-02-24 01:53:00,23.0,21.0,29.78,NNW,343,5.0,-999.0,93,-99.99,,,-99.99,,2013-02-24 08:53:00,
2013-02-24 02:01:00,24.0,22.0,29.80,North,-999,7.0,-999.0,93,-99.99,,,-99.99,,2013-02-24 09:01:00,
2013-02-24 02:11:00,24.0,22.0,29.78,WSW,258,6.0,-999.0,93,-99.99,,,-99.99,,2013-02-24 09:11:00,
2013-02-24 02:21:00,24.0,22.0,29.80,NNW,335,6.0,-999.0,92,-99.99,,,-99.99,,2013-02-24 09:21:00,
2013-02-24 02:31:00,23.0,21.0,29.79,NW,318,5.0,-999.0,92,-99.99,,,-99.99,,2013-02-24 09:31:00,
2013-02-24 02:42:00,24.0,22.0,29.79,North,-999,6.0,-999.0,92,-99.99,,,-99.99,,2013-02-24 09:42:00,
2013-02-24 02:51:00,24.0,22.0,29.79,North,-999,6.0,-999.0,92,-99.99,,,-99.99,,2013-02-24 09:51:00,
2013-02-24 03:01:00,24.0,22.0,29.79,NNW,333,6.0,-999.0,92,-99.99,,,-99.99,,2013-02-24 10:01:00,
2013-02-24 03:11:00,24.0,22.0,29.78,North,-999,5.0,-999.0,92,-99.99,,,-99.99,,2013-02-24 10:11:00,
2013-02-24 03:21:00,24.0,22.0,29.80,NNE,27,5.0,-999.0,92,-99.99,,,-99.99,,2013-02-24 10:21:00,
2013-02-24 03:32:00,24.0,22.0,29.80,NE,37,5.0,-999.0,92,-99.99,,,-99.99,,2013-02-24 10:32:00,
2013-02-24 03:41:00,24.0,22.0,29.80,NE,52,5.0,-999.0,92,-99.99,,,-99.99,,2013-02-24 10:41:00,
2013-02-24 03:51:00,24.0,22.0,29.80,NE,51,6.0,-999.0,92,-99.99,,,-99.99,,2013-02-24 10:51:00,
2013-02-24 04:01:00,24.0,22.0,29.80,NE,49,6.0,-999.0,92,-99.99,,,-99.99,,2013-02-24 11:01:00,
2013-02-24 04:11:00,24.0,22.0,29.79,North,0,0.0,-999.0,92,-99.99,,,-99.99,,2013-02-24 11:11:00,
2013-02-24 04:21:00,25.0,23.0,29.82,SW,218,8.0,-999.0,92,-99.99,,,-99.99,,2013-02-24 11:21:00,
2013-02-24 04:32:00,24.0,22.0,29.83,WSW,252,5.0,-999.0,92,-99.99,,,-99.99,,2013-02-24 11:32:00,
2013-02-24 04:41:00,24.0,22.0,29.83,WSW,242,3.0,-999.0,92,-99.99,,,-99.99,,2013-02-24 11:41:00,
2013-02-24 04:52:00,24.0,22.0,29.83,West,260,3.0,-999.0,92,-99.99,,,-99.99,,2013-02-24 11:52:00,
2013-02-24 05:01:00,24.0,22.0,29.84,West,271,3.0,-999.0,92,-99.99,,,-99.99,,2013-02-24 12:01:00,
2013-02-24 05:11:00,24.0,22.0,29.84,WNW,290,4.0,-999.0,92,-99.99,,,-99.99,,2013-02-24 12:11:00,
2013-02-24 05:22:00,24.0,22.0,29.83,NNW,337,6.0,-999.0,92,-99.99,,,-99.99,,2013-02-24 12:22:00,
2013-02-24 05:32:00,25.0,23.0,29.85,NW,322,5.0,-999.0,92,-99.99,,,-99.99,,2013-02-24 12:32:00,
2013-02-24 05:46:00,25.0,23.0,29.84,NW,316,6.0,-999.0,91,-99.99,,,-99.99,,2013-02-24 12:46:00,
2013-02-24 05:55:00,25.0,22.0,29.86,WNW,294,6.0,-999.0,90,-99.99,,,-99.99,,2013-02-24 12:55:00,
2013-02-24 06:12:00,25.0,23.0,29.87,WNW,299,6.0,-999.0,91,-99.99,,,-99.99,,2013-02-24 13:12:00,
2013-02-24 06:26:00,26.0,23.0,29.88,NW,319,10.0,-999.0,89,-99.99,,,-99.99,,2013-02-24 13:26:00,
2013-02-24 06:34:00,27.0,25.0,29.87,NW,318,9.0,-999.0,90,-99.99,,,-99.99,,2013-02-24 13:34:00,
2013-02-24 06:44:00,28.0,26.0,29.89,NW,322,12.0,-999.0,92,-99.99,,,-99.99,,2013-02-24 13:44:00,
2013-02-24 06:53:00,28.0,26.0,29.89,NW,315,9.0,-999.0,93,-99.99,,,-99.99,,2013-02-24 13:53:00,
2013-02-24 07:04:00,28.0,27.0,29.87,NNW,341,13.0,-999.0,94,-99.99,,,-99.99,,2013-02-24 14:04:00,
2013-02-24 07:14:00,28.0,27.0,29.90,NNW,339,14.0,-999.0,94,-99.99,,,-99.99,,2013-02-24 14:14:00,
2013-02-24 07:24:00,28.0,27.0,29.89,NNW,331,14.0,-999.0,94,-99.99,,,-99.99,,2013-02-24 14:24:00,
2013-02-24 07:34:00,28.0,27.0,29.89,NW,320,15.0,-999.0,94,-99.99,,,-99.99,,2013-02-24 14:34:00,
2013-02-24 07:44:00,28.0,27.0,29.91,NNW,328,14.0,-999.0,94,-99.99,,,-99.99,,2013-02-24 14:44:00,
2013-02-24 07:53:00,28.0,27.0,29.91,NNW,334,20.0,-999.0,94,-99.99,,,-99.99,,2013-02-24 14:53:00,
2013-02-24 08:03:00,28.0,27.0,29.90,NNW,335,14.0,-999.0,93,-99.99,,,-99.99,,2013-02-24 15:03:00,
2013-02-24 08:13:00,29.0,27.0,29.91,NW,315,12.0,-999.0,92,-99.99,,,-99.99,,2013-02-24 15:13:00,
2013-02-24 08:23:00,29.0,27.0,29.90,NW,320,14.0,-999.0,91,-99.99,,,-99.99,,2013-02-24 15:23:00,
2013-02-24 08:32:00,29.0,26.0,29.91,NW,317,13.0,-999.0,89,-99.99,,,-99.99,,2013-02-24 15:32:00,
2013-02-24 08:42:00,29.0,26.0,29.92,NW,322,18.0,-999.0,87,-99.99,,,-99.99,,2013-02-24 15:42:00,
2013-02-24 08:52:00,30.0,26.0,29.92,NW,320,14.0,-999.0,86,-99.99,,,-99.99,,2013-02-24 15:52:00,
2013-02-24 09:01:00,30.0,26.0,29.93,NW,323,16.0,-999.0,86,-99.99,,,-99.99,,2013-02-24 16:01:00,
2013-02-24 09:11:00,30.0,26.0,29.93,NW,317,16.0,-999.0,87,-99.99,,,-99.99,,2013-02-24 16:11:00,
2013-02-24 09:21:00,30.0,27.0,29.93,NW,314,14.0,-999.0,87,-99.99,,,-99.99,,2013-02-24 16:21:00,
2013-02-24 09:32:00,30.0,27.0,29.94,NW,317,18.0,-999.0,87,-99.99,,,-99.99,,2013-02-24 16:32:00,
2013-02-24 09:42:00,30.0,27.0,29.95,NW,324,18.0,-999.0,87,-99.99,,,-99.99,,2013-02-24 16:42:00,
2013-02-24 09:52:00,30.0,27.0,29.94,NW,317,19.0,-999.0,87,-99.99,,,-99.99,,2013-02-24 16:52:00,
2013-02-24 10:01:00,30.0,27.0,29.96,NW,319,19.0,-999.0,87,-99.99,,,-99.99,,2013-02-24 17:01:00,
2013-02-24 10:11:00,30.0,27.0,29.95,NW,322,14.0,-999.0,87,-99.99,,,-99.99,,2013-02-24 17:11:00,
2013-02-24 10:21:00,31.0,27.0,29.96,NW,317,20.0,-999.0,87,-99.99,,,-99.99,,2013-02-24 17:21:00,
2013-02-24 10:32:00,31.0,27.0,29.98,NW,323,13.0,-999.0,87,-99.99,,,-99.99,,2013-02-24 17:32:00,
2013-02-24 10:42:00,31.0,27.0,29.97,NW,325,19.0,-999.0,87,-99.99,,,-99.99,,2013-02-24 17:42:00,
2013-02-24 10:52:00,31.0,27.0,29.98,NW,318,20.0,-999.0,86,-99.99,,,-99.99,,2013-02-24 17:52:00,
2013-02-24 11:02:00,31.0,27.0,29.98,NW,318,20.0,-999.0,86,-99.99,,,-99.99,,2013-02-24 18:02:00,
2013-02-24 11:11:00,31.0,27.0,29.97,NW,325,20.0,-999.0,87,-99.99,,,-99.99,,2013-02-24 18:11:00,
2013-02-24 11:22:00,30.0,27.0,29.97,NW,325,20.0,-999.0,88,-99.99,,,-99.99,,2013-02-24 18:22:00,
2013-02-24 11:32:00,31.0,27.0,29.96,NNW,328,21.0,-999.0,88,-99.99,,,-99.99,,2013-02-24 18:32:00,
2013-02-24 11:42:00,30.0,27.0,29.97,NW,320,22.0,-999.0,89,-99.99,,,-99.99,,2013-02-24 18:42:00,
2013-02-24 11:52:00,30.0,27.0,29.98,NW,315,24.0,-999.0,90,-99.99,,,-99.99,,2013-02-24 18:52:00,
2013-02-24 12:01:00,30.0,27.0,29.96,NW,325,22.0,-999.0,89,-99.99,,,-99.99,,2013-02-24 19:01:00,
2013-02-24 12:11:00,30.0,27.0,29.98,NNW,327,19.0,-999.0,88,-99.99,,,-99.99,,2013-02-24 19:11:00,
2013-02-24 12:22:00,30.0,28.0,29.98,NNW,328,18.0,-999.0,89,-99.99,,,-99.99,,2013-02-24 19:22:00,
2013-02-24 12:32:00,30.0,27.0,29.96,NW,323,18.0,-999.0,89,-99.99,,,-99.99,,2013-02-24 19:32:00,
2013-02-24 12:42:00,30.0,28.0,29.98,NW,310,15.0,-999.0,93,-99.99,,,-99.99,,2013-02-24 19:42:00,
2013-02-24 12:51:00,30.0,29.0,29.98,NW,312,21.0,-999.0,94,-99.99,,,-99.99,,2013-02-24 19:51:00,
2013-02-24 13:02:00,30.0,29.0,29.96,NW,316,17.0,-999.0,94,-99.99,,,-99.99,,2013-02-24 20:02:00,
2013-02-24 13:11:00,30.0,29.0,29.98,WNW,302,15.0,-999.0,93,-99.99,,,-99.99,,2013-02-24 20:11:00,
2013-02-24 13:21:00,30.0,28.0,29.96,NW,311,22.0,-999.0,93,-99.99,,,-99.99,,2013-02-24 20:21:00,
2013-02-24 13:32:00,31.0,29.0,29.96,NW,304,16.0,-999.0,93,-99.99,,,-99.99,,2013-02-24 20:32:00,
2013-02-24 13:42:00,31.0,29.0,29.95,NW,309,18.0,-999.0,92,-99.99,,,-99.99,,2013-02-24 20:42:00,
2013-02-24 13:52:00,31.0,28.0,29.96,WNW,295,15.0,-999.0,91,-99.99,,,-99.99,,2013-02-24 20:52:00,
2013-02-24 14:01:00,31.0,29.0,29.96,NW,313,17.0,-999.0,90,-99.99,,,-99.99,,2013-02-24 21:01:00,
2013-02-24 14:11:00,31.0,28.0,29.96,NW,304,19.0,-999.0,89,-99.99,,,-99.99,,2013-02-24 21:11:00,
2013-02-24 14:21:00,31.0,28.0,29.97,NW,312,21.0,-999.0,87,-99.99,,,-99.99,,2013-02-24 21:21:00,
2013-02-24 14:32:00,31.0,28.0,29.98,NW,313,19.0,-999.0,87,-99.99,,,-99.99,,2013-02-24 21:32:00,
2013-02-24 14:42:00,31.0,27.0,29.95,NW,309,14.0,-999.0,86,-99.99,,,-99.99,,2013-02-24 21:42:00,
2013-02-24 14:52:00,31.0,27.0,29.98,WNW,301,17.0,-999.0,87,-99.99,,,-99.99,,2013-02-24 21:52:00,
2013-02-24 15:01:00,31.0,27.0,29.97,NW,311,22.0,-999.0,86,-99.99,,,-99.99,,2013-02-24 22:01:00,
2013-02-24 15:11:00,31.0,27.0,29.96,NW,308,23.0,-999.0,88,-99.99,,,-99.99,,2013-02-24 22:11:00,
2013-02-24 15:21:00,31.0,27.0,29.97,NW,308,15.0,-999.0,87,-99.99,,,-99.99,,2013-02-24 22:21:00,
2013-02-24 15:31:00,31.0,27.0,29.96,NW,309,22.0,-999.0,84,-99.99,,,-99.99,,2013-02-24 22:31:00,
2013-02-24 15:41:00,31.0,26.0,29.98,WNW,302,20.0,-999.0,81,-99.99,,,-99.99,,2013-02-24 22:41:00,
2013-02-24 15:52:00,31.0,26.0,29.98,NW,306,17.0,-999.0,79,-99.99,,,-99.99,,2013-02-24 22:52:00,
2013-02-24 16:02:00,32.0,25.0,29.97,NW,308,17.0,-999.0,76,-99.99,,,-99.99,,2013-02-24 23:02:00,
2013-02-24 16:11:00,32.0,25.0,29.99,NW,311,19.0,-999.0,75,-99.99,,,-99.99,,2013-02-24 23:11:00,
2013-02-24 16:21:00,32.0,25.0,29.97,NW,305,16.0,-999.0,76,-99.99,,,-99.99,,2013-02-24 23:21:00,
2013-02-24 16:32:00,32.0,25.0,29.99,NW,316,15.0,-999.0,75,-99.99,,,-99.99,,2013-02-24 23:32:00,
2013-02-24 16:42:00,32.0,24.0,29.98,NNW,327,18.0,-999.0,73,-99.99,,,-99.99,,2013-02-24 23:42:00,
2013-02-24 16:52:00,32.0,24.0,29.97,NW,325,14.0,-999.0,72,-99.99,,,-99.99,,2013-02-24 23:52:00,
2013-02-24 17:01:00,32.0,24.0,29.97,NW,325,14.0,-999.0,72,-99.99,,,-99.99,,2013-02-25 00:01:00,
2013-02-24 17:11:00,32.0,24.0,30.00,NW,324,16.0,-999.0,74,-99.99,,,-99.99,,2013-02-25 00:11:00,
2013-02-24 17:21:00,32.0,25.0,29.98,NNW,329,13.0,-999.0,75,-99.99,,,-99.99,,2013-02-25 00:21:00,
2013-02-24 17:32:00,32.0,25.0,29.99,NNW,327,10.0,-999.0,76,-99.99,,,-99.99,,2013-02-25 00:32:00,
2013-02-24 17:42:00,31.0,25.0,30.00,NNW,332,9.0,-999.0,76,-99.99,,,-99.99,,2013-02-25 00:42:00,
2013-02-24 17:51:00,31.0,25.0,29.99,NW,319,8.0,-999.0,77,-99.99,,,-99.99,,2013-02-25 00:51:00,
2013-02-24 18:01:00,31.0,25.0,29.98,NW,324,11.0,-999.0,77,-99.99,,,-99.99,,2013-02-25 01:01:00,
2013-02-24 18:11:00,31.0,24.0,30.00,NNW,327,15.0,-999.0,75,-99.99,,,-99.99,,2013-02-25 01:11:00,
2013-02-24 18:21:00,31.0,24.0,30.01,NNW,341,13.0,-999.0,75,-99.99,,,-99.99,,2013-02-25 01:21:00,
2013-02-24 18:31:00,31.0,24.0,30.01,NNW,330,12.0,-999.0,76,-99.99,,,-99.99,,2013-02-25 01:31:00,
2013-02-24 18:42:00,30.0,24.0,30.00,NNW,335,11.0,-999.0,78,-99.99,,,-99.99,,2013-02-25 01:42:00,
2013-02-24 18:52:00,30.0,24.0,30.02,NNW,333,9.0,-999.0,79,-99.99,,,-99.99,,2013-02-25 01:52:00,
2013-02-24 19:01:00,30.0,24.0,30.02,NW,319,9.0,-999.0,79,-99.99,,,-99.99,,2013-02-25 02:01:00,
2013-02-24 19:11:00,29.0,24.0,30.03,NW,323,10.0,-999.0,79,-99.99,,,-99.99,,2013-02-25 02:11:00,
2013-02-24 19:21:00,30.0,24.0,30.01,NW,319,9.0,-999.0,79,-99.99,,,-99.99,,2013-02-25 02:21:00,
2013-02-24 19:32:00,29.0,24.0,30.03,NW,318,10.0,-999.0,79,-99.99,,,-99.99,,2013-02-25 02:32:00,
2013-02-24 19:41:00,29.0,24.0,30.03,NW,317,9.0,-999.0,79,-99.99,,,-99.99,,2013-02-25 02:41:00,
2013-02-24 19:52:00,29.0,24.0,30.04,NW,305,8.0,-999.0,80,-99.99,,,-99.99,,2013-02-25 02:52:00,
2013-02-24 20:01:00,28.0,24.0,30.03,WNW,302,7.0,-999.0,83,-99.99,,,-99.99,,2013-02-25 03:01:00,
2013-02-24 20:11:00,28.0,24.0,30.04,WNW,303,7.0,-999.0,83,-99.99,,,-99.99,,2013-02-25 03:11:00,
2013-02-24 20:21:00,28.0,23.0,30.04,NW,305,6.0,-999.0,81,-99.99,,,-99.99,,2013-02-25 03:21:00,
2013-02-24 20:31:00,28.0,23.0,30.02,NW,311,6.0,-999.0,81,-99.99,,,-99.99,,2013-02-25 03:31:00,
2013-02-24 20:42:00,28.0,23.0,30.03,NW,314,7.0,-999.0,79,-99.99,,,-99.99,,2013-02-25 03:42:00,
2013-02-24 20:51:00,28.0,23.0,30.02,NW,312,5.0,-999.0,79,-99.99,,,-99.99,,2013-02-25 03:51:00,
2013-02-24 21:01:00,28.0,23.0,30.02,WNW,303,8.0,-999.0,79,-99.99,,,-99.99,,2013-02-25 04:01:00,
2013-02-24 21:11:00,28.0,22.0,30.04,NW,321,8.0,-999.0,78,-99.99,,,-99.99,,2013-02-25 04:11:00,
2013-02-24 21:21:00,28.0,22.0,30.05,NNW,337,9.0,-999.0,78,-99.99,,,-99.99,,2013-02-25 04:21:00,
2013-02-24 21:32:00,28.0,22.0,30.04,NNW,341,8.0,-999.0,78,-99.99,,,-99.99,,2013-02-25 04:32:00,
2013-02-24 21:42:00,28.0,22.0,30.04,NW,318,7.0,-999.0,77,-99.99,,,-99.99,,2013-02-25 04:42:00,
2013-02-24 21:52:00,26.0,22.0,30.04,WSW,244,8.0,-999.0,82,-99.99,,,-99.99,,2013-02-25 04:52:00,
2013-02-24 22:01:00,26.0,22.0,30.06,West,261,6.0,-999.0,85,-99.99,,,-99.99,,2013-02-25 05:01:00,
2013-02-24 22:11:00,26.0,22.0,30.04,WSW,242,6.0,-999.0,85,-99.99,,,-99.99,,2013-02-25 05:11:00,
2013-02-24 22:22:00,26.0,22.0,30.06,WSW,245,6.0,-999.0,85,-99.99,,,-99.99,,2013-02-25 05:22:00,
2013-02-24 22:32:00,26.0,21.0,30.04,West,268,7.0,-999.0,83,-99.99,,,-99.99,,2013-02-25 05:32:00,
2013-02-24 22:42:00,26.0,21.0,30.06,WSW,257,5.0,-999.0,82,-99.99,,,-99.99,,2013-02-25 05:42:00,
2013-02-24 22:52:00,26.0,21.0,30.06,West,261,6.0,-999.0,82,-99.99,,,-99.99,,2013-02-25 05:52:00,
2013-02-24 23:02:00,26.0,21.0,30.05,WSW,251,5.0,-999.0,80,-99.99,,,-99.99,,2013-02-25 06:02:00,
2013-02-24 23:11:00,26.0,21.0,30.06,WSW,253,6.0,-999.0,80,-99.99,,,-99.99,,2013-02-25 06:11:00,
2013-02-24 23:21:00,26.0,20.0,30.06,WSW,251,5.0,-999.0,80,-99.99,,,-99.99,,2013-02-25 06:21:00,
2013-02-24 23:32:00,25.0,20.0,30.05,West,261,5.0,-999.0,80,-99.99,,,-99.99,,2013-02-25 06:32:00,
2013-02-24 23:42:00,25.0,20.0,30.06,WSW,248,4.0,-999.0,81,-99.99,,,-99.99,,2013-02-25 06:42:00,
2013-02-24 23:51:00,24.0,20.0,30.06,West,259,5.0,-999.0,82,-99.99,,,-99.99,,2013-02-25 06:51:00,